Location: Newark
(35.6799°N, 139.7636°E)
Time: 14:54:13
(UTC+00:00)

Courier 1B Rocket - All Passes

Search period start: 05 December 2019 00:00
Search period end: 15 December 2019 00:00
Orbit: 920 x 1202 km, 28.2° (Epoch: 04 December)

Date Brightness Start Highest point End Pass type
(mag) Time Alt. Az. Time Alt. Az. Time Alt. Az.
05 Dec - 00:41:51 10° WSW 00:47:43 42° S 00:53:34 10° ESE daylight
05 Dec - 02:34:57 10° WSW 02:40:37 37° S 02:46:24 10° SE daylight
05 Dec - 04:29:02 10° WSW 04:33:23 19° SSW 04:37:51 10° SSE daylight
05 Dec - 21:49:06 10° SSW 21:54:03 23° SSE 21:58:52 10° ESE daylight
05 Dec - 23:41:00 10° WSW 23:46:52 39° S 23:52:37 10° ESE daylight
06 Dec - 01:33:59 10° WSW 01:39:47 41° S 01:45:37 10° ESE daylight
06 Dec - 03:27:38 10° WSW 03:32:35 25° SSW 03:37:40 10° SSE daylight
06 Dec - 20:49:01 10° SSW 20:53:15 18° SSE 20:57:20 10° ESE visible
06 Dec - 22:40:13 10° SW 22:46:01 35° SSE 22:51:38 10° ESE daylight
07 Dec - 00:33:01 10° WSW 00:38:56 43° S 00:44:47 10° ESE daylight
07 Dec - 02:26:26 10° WSW 02:31:47 31° SSW 02:37:14 10° SE daylight
07 Dec - 04:21:38 10° SW 04:24:26 13° SSW 04:27:16 10° S daylight
07 Dec - 19:49:37 10° S 19:52:26 13° SSE 19:55:11 10° SE visible
07 Dec - 21:39:31 10° SW 21:45:10 30° SSE 21:50:36 10° ESE daylight
07 Dec - 23:32:03 10° WSW 23:38:05 43° S 23:43:56 10° ESE daylight
08 Dec - 01:25:19 10° WSW 01:30:59 36° SSW 01:36:37 10° SE daylight
08 Dec - 03:19:34 10° WSW 03:23:40 18° SSW 03:27:50 10° SSE daylight
08 Dec - 20:38:59 10° SSW 20:44:19 24° SSE 20:49:25 10° ESE visible
08 Dec - 22:31:06 10° WSW 22:37:12 40° S 22:43:03 10° ESE daylight
09 Dec - 00:24:14 10° WSW 00:30:09 41° S 00:35:56 10° ESE daylight
09 Dec - 02:18:02 10° WSW 02:22:55 24° SSW 02:27:49 10° SSE daylight
09 Dec - 19:38:44 10° SSW 19:43:27 19° SSE 19:47:58 10° ESE visible
09 Dec - 21:30:11 10° SW 21:36:19 36° SSE 21:42:07 10° ESE daylight
09 Dec - 23:23:10 10° WSW 23:29:18 43° S 23:35:11 10° ESE daylight
10 Dec - 01:16:45 10° WSW 01:22:09 30° SSW 01:27:29 10° SE daylight
10 Dec - 03:12:18 10° SW 03:14:44 12° SSW 03:17:09 10° S daylight
10 Dec - 18:39:03 10° S 18:42:35 14° SSE 18:46:00 10° ESE visible
10 Dec - 20:29:22 10° SW 20:35:25 31° SSE 20:41:07 10° ESE visible
10 Dec - 22:22:05 10° WSW 22:28:24 44° S 22:34:23 10° ESE daylight
11 Dec - 00:15:31 10° WSW 00:21:20 36° SSW 00:26:59 10° SE daylight
11 Dec - 02:09:59 10° WSW 02:14:00 18° SSW 02:18:00 10° SSE daylight
11 Dec - 19:28:44 10° SW 19:34:30 26° SSE 19:39:57 10° ESE visible
11 Dec - 21:21:02 10° WSW 21:27:29 42° S 21:33:32 10° ESE daylight
11 Dec - 23:14:20 10° WSW 23:20:30 41° S 23:26:22 10° ESE daylight
12 Dec - 01:08:19 10° WSW 01:13:15 24° SSW 01:18:06 10° SSE daylight
12 Dec - 18:28:22 10° SSW 18:33:34 21° SSE 18:38:32 10° ESE visible
12 Dec - 20:20:01 10° SW 20:26:32 38° S 20:32:37 10° ESE visible
12 Dec - 22:13:09 10° WSW 22:19:36 44° S 22:25:39 10° ESE daylight
13 Dec - 00:06:54 10° WSW 00:12:29 30° SSW 00:17:52 10° SE daylight
13 Dec - 02:02:45 10° SW 02:05:01 12° SSW 02:07:17 10° S daylight
13 Dec - 17:28:30 10° S 17:32:38 16° SSE 17:36:38 10° ESE visible
13 Dec - 19:19:07 10° SW 19:25:34 33° SSE 19:31:36 10° ESE visible
13 Dec - 21:11:59 10° WSW 21:18:39 45° S 21:24:52 10° ESE visible
13 Dec - 23:05:34 10° WSW 23:11:39 37° SSW 23:17:26 10° SE daylight
14 Dec - 01:00:12 10° WSW 01:04:19 18° SSW 01:08:20 10° SSE daylight
14 Dec - 16:30:08 10° SSE 16:31:41 11° SSE 16:33:14 10° SE visible
14 Dec - 18:18:24 10° SW 18:24:34 28° SSE 18:30:25 10° ESE visible
14 Dec - 20:10:51 10° WSW 20:17:39 44° S 20:24:00 10° ESE visible
14 Dec - 22:04:16 10° WSW 22:10:46 42° S 22:16:51 10° ESE daylight
